INTELSAT 20 (IS-20)

Last updated on Fri Dec 19 2025 00:02:50 GMT+0000 (Coordinated Universal Time)

1 38740U 12043A 25352.56756135 .00000002 00000+0 00000+0 0 9997 2 38740 0.0048 36.6097 0003260 149.7129 173.9185 1.00265980 48930
UTC large
Height (km)
Speed (km/s)
/
Latitude / Longitude
Inclination (degrees)
Orbital Period (minutes)
Azimuth
Elevation
Range (km)
Doppler Factor

Next 0 passes for location: London (51.5072 / 0.1276)

Sorry there are no passes over London.